TimeEST,TemperatureF,Dew PointF,Humidity,Sea Level PressureIn,VisibilityMPH,Wind Direction,Wind SpeedMPH,Gust SpeedMPH,PrecipitationIn,Events,Conditions,WindDirDegrees,DateUTC
12:15 AM,43.2,30.2,60,30.24,10.0,Calm,Calm,-,N/A,,Overcast,0,2013-01-06 05:15:00
12:35 AM,43.3,30.4,60,30.24,10.0,Calm,Calm,-,N/A,,Overcast,0,2013-01-06 05:35:00
12:55 AM,43.2,31.1,62,30.23,10.0,South,4.6,-,N/A,,Overcast,180,2013-01-06 05:55:00
1:15 AM,43.7,30.4,59,30.23,10.0,South,6.9,-,N/A,,Overcast,180,2013-01-06 06:15:00
1:35 AM,43.7,31.1,61,30.24,10.0,SSW,4.6,-,N/A,,Overcast,200,2013-01-06 06:35:00
1:55 AM,43.7,31.1,61,30.24,10.0,South,4.6,-,N/A,,Overcast,190,2013-01-06 06:55:00
2:15 AM,43.9,31.1,61,30.24,10.0,SSW,5.8,-,N/A,,Overcast,200,2013-01-06 07:15:00
2:35 AM,43.7,31.8,63,30.23,10.0,South,4.6,-,N/A,,Overcast,190,2013-01-06 07:35:00
2:55 AM,44.1,32.0,63,30.23,10.0,SW,3.5,-,N/A,,Overcast,220,2013-01-06 07:55:00
3:15 AM,43.7,33.1,66,30.23,10.0,Calm,Calm,-,N/A,Rain,Light Rain,0,2013-01-06 08:15:00
3:35 AM,43.3,34.0,70,30.22,10.0,Calm,Calm,-,N/A,,Overcast,0,2013-01-06 08:35:00
3:55 AM,43.7,34.2,69,30.21,10.0,Calm,Calm,-,N/A,Rain,Light Rain,0,2013-01-06 08:55:00
4:15 AM,43.5,34.7,71,30.21,10.0,Calm,Calm,-,N/A,,Overcast,0,2013-01-06 09:15:00
4:35 AM,43.3,34.9,72,30.20,10.0,Calm,Calm,-,N/A,,Overcast,0,2013-01-06 09:35:00
5:15 AM,43.2,35.2,74,30.20,10.0,SSW,3.5,-,N/A,,Overcast,200,2013-01-06 10:15:00
5:35 AM,43.2,35.1,73,30.19,10.0,Calm,Calm,-,N/A,,Overcast,0,2013-01-06 10:35:00
5:55 AM,43.3,35.6,74,30.18,10.0,Calm,Calm,-,N/A,,Overcast,0,2013-01-06 10:55:00
6:35 AM,43.7,35.8,74,30.18,10.0,Calm,Calm,-,N/A,,Overcast,0,2013-01-06 11:35:00
6:55 AM,43.7,36.7,76,30.18,10.0,Calm,Calm,-,N/A,,Overcast,0,2013-01-06 11:55:00
7:15 AM,44.1,35.8,73,30.19,10.0,Calm,Calm,-,N/A,,Overcast,0,2013-01-06 12:15:00
7:35 AM,43.9,36.0,74,30.19,10.0,South,4.6,-,N/A,,Overcast,190,2013-01-06 12:35:00
7:55 AM,43.7,36.9,77,30.20,10.0,South,3.5,-,N/A,,Light Drizzle,180,2013-01-06 12:55:00
8:15 AM,43.7,37.2,78,30.20,10.0,South,4.6,-,N/A,,Overcast,180,2013-01-06 13:15:00
8:35 AM,43.7,38.1,81,30.21,10.0,SW,3.5,-,N/A,Rain,Light Rain,220,2013-01-06 13:35:00
8:55 AM,43.9,38.8,82,30.21,10.0,South,3.5,-,N/A,,Light Drizzle,180,2013-01-06 13:55:00
9:15 AM,44.2,39.4,83,30.22,10.0,SSW,3.5,-,N/A,Rain,Light Rain,210,2013-01-06 14:15:00
9:35 AM,44.1,39.4,84,30.22,7.0,South,4.6,-,N/A,Rain,Rain,190,2013-01-06 14:35:00
9:55 AM,43.9,40.1,87,30.22,10.0,South,4.6,-,N/A,,Overcast,190,2013-01-06 14:55:00
10:15 AM,44.2,40.3,86,30.21,10.0,South,5.8,-,N/A,Rain,Light Rain,180,2013-01-06 15:15:00
10:35 AM,44.4,41.2,88,30.20,10.0,South,3.5,-,N/A,Rain,Rain,170,2013-01-06 15:35:00
10:55 AM,44.6,41.4,88,30.20,7.0,South,3.5,-,N/A,,Light Drizzle,170,2013-01-06 15:55:00
11:15 AM,44.8,41.5,88,30.19,10.0,South,3.5,-,N/A,,Drizzle,190,2013-01-06 16:15:00
11:35 AM,45.0,41.2,87,30.17,7.0,South,4.6,-,N/A,Rain,Light Rain,190,2013-01-06 16:35:00
11:55 AM,45.3,42.1,88,30.16,10.0,Calm,Calm,-,N/A,,Light Drizzle,0,2013-01-06 16:55:00
12:15 PM,46.0,41.9,85,30.15,10.0,SW,3.5,-,N/A,,Overcast,220,2013-01-06 17:15:00
12:35 PM,46.4,42.1,85,30.14,10.0,South,5.8,-,N/A,,Overcast,190,2013-01-06 17:35:00
12:55 PM,46.8,41.9,83,30.14,10.0,SW,6.9,-,N/A,,Overcast,220,2013-01-06 17:55:00
1:15 PM,47.3,42.1,82,30.13,10.0,WSW,4.6,-,N/A,,Overcast,240,2013-01-06 18:15:00
1:35 PM,47.5,42.4,83,30.11,10.0,South,4.6,-,N/A,,Overcast,190,2013-01-06 18:35:00
1:55 PM,48.2,43.0,82,30.10,10.0,South,8.1,-,N/A,,Overcast,190,2013-01-06 18:55:00
2:15 PM,48.2,42.8,82,30.09,10.0,SW,5.8,-,N/A,,Overcast,220,2013-01-06 19:15:00
2:35 PM,48.2,42.8,82,30.09,10.0,SW,3.5,-,N/A,,Overcast,220,2013-01-06 19:35:00
2:55 PM,48.4,43.0,82,30.08,10.0,Calm,Calm,-,N/A,,Overcast,0,2013-01-06 19:55:00
3:15 PM,48.6,43.2,82,30.08,10.0,SSW,3.5,-,N/A,,Overcast,200,2013-01-06 20:15:00
3:35 PM,49.1,43.2,80,30.09,10.0,SSW,4.6,-,N/A,,Overcast,200,2013-01-06 20:35:00
3:55 PM,48.9,43.2,80,30.08,10.0,South,3.5,-,N/A,,Overcast,180,2013-01-06 20:55:00
4:15 PM,49.1,44.8,85,30.08,10.0,SSE,5.8,-,N/A,,Overcast,160,2013-01-06 21:15:00
4:35 PM,48.4,45.5,90,30.07,10.0,SSE,4.6,-,N/A,,Mostly Cloudy,160,2013-01-06 21:35:00
4:55 PM,48.4,45.9,91,30.08,10.0,South,4.6,-,N/A,,Mostly Cloudy,170,2013-01-06 21:55:00
5:15 PM,48.2,46.6,94,30.07,10.0,South,4.6,-,N/A,,Overcast,170,2013-01-06 22:15:00
5:35 PM,47.8,46.8,96,30.07,10.0,Calm,Calm,-,N/A,,Mostly Cloudy,0,2013-01-06 22:35:00
5:55 PM,47.7,46.9,97,30.07,10.0,Calm,Calm,-,N/A,,Overcast,0,2013-01-06 22:55:00
6:15 PM,47.7,46.9,97,30.08,10.0,Calm,Calm,-,N/A,,Overcast,0,2013-01-06 23:15:00
6:35 PM,46.6,46.0,98,30.09,7.0,Calm,Calm,-,N/A,,Mostly Cloudy,0,2013-01-06 23:35:00
6:55 PM,46.8,46.6,99,30.10,7.0,Calm,Calm,-,N/A,,Overcast,0,2013-01-06 23:55:00
7:15 PM,47.1,46.9,99,30.10,7.0,Calm,Calm,-,N/A,,Overcast,0,2013-01-07 00:15:00
7:35 PM,46.9,46.9,100,30.09,7.0,Calm,Calm,-,N/A,,Overcast,0,2013-01-07 00:35:00
7:55 PM,46.9,46.9,100,30.11,2.5,WSW,3.5,-,N/A,,Overcast,250,2013-01-07 00:55:00
8:15 PM,46.6,46.6,100,30.12,0.2,West,3.5,-,N/A,Fog,Fog,270,2013-01-07 01:15:00
8:35 PM,46.0,46.0,100,30.12,0.2,Calm,Calm,-,N/A,Fog,Fog,0,2013-01-07 01:35:00
8:55 PM,45.5,45.5,100,30.13,0.2,Calm,Calm,-,N/A,Fog,Fog,0,2013-01-07 01:55:00
9:15 PM,44.6,44.6,100,30.13,0.2,Calm,Calm,-,N/A,Fog,Fog,0,2013-01-07 02:15:00
9:35 PM,43.9,43.9,100,30.14,0.2,Calm,Calm,-,N/A,Fog,Fog,0,2013-01-07 02:35:00
10:15 PM,42.8,42.8,100,30.14,0.2,Calm,Calm,-,N/A,Fog,Fog,0,2013-01-07 03:15:00
10:55 PM,44.2,44.2,100,30.18,0.2,Calm,Calm,-,N/A,Fog,Fog,0,2013-01-07 03:55:00
11:15 PM,43.7,43.7,100,30.18,4.0,North,5.8,-,N/A,,Mostly Cloudy,350,2013-01-07 04:15:00
11:35 PM,42.8,42.8,100,30.19,10.0,North,5.8,-,N/A,,Overcast,360,2013-01-07 04:35:00
11:55 PM,42.1,42.1,100,30.19,10.0,NNE,4.6,-,N/A,,Overcast,20,2013-01-07 04:55:00